KC7RJK-2 Weather Reports


time (UTC)temp
C
wind
direction
speed
KPH
gust
KPH
rain 1hr
cm
rain 24hr
cm
rain mn
cm
humidity
%
barometer
mb
20260506030009 16 334 1.6 8.0 0.00 0.00 0.00 78 1015.3
20260506025008 17 353 3.2 8.0 0.00 0.00 0.00 77 1015.2
20260506024008 17 23 0.0 6.4 0.00 0.00 0.00 76 1015.1
20260506023008 17 25 0.0 4.8 0.00 0.00 0.00 75 1015.0
20260506022010 18 34 1.6 8.0 0.00 0.00 0.00 74 1015.0
20260506021008 18 30 0.0 6.4 0.00 0.00 0.00 73 1015.0
20260506020009 20 32 3.2 8.0 0.00 0.00 0.00 69 1015.0
20260506015008 20 49 3.2 9.7 0.00 0.00 0.00 69 1014.9
20260506014008 20 33 3.2 4.8 0.00 0.00 0.00 69 1014.8
20260506013011 20 36 3.2 4.8 0.00 0.00 0.00 70 1014.8
20260506012009 20 36 0.0 12.9 0.00 0.00 0.00 71 1014.8
20260506011009 20 39 4.8 9.7 0.00 0.00 0.00 70 1014.8
20260506010010 20 3 0.0 14.5 0.00 0.00 0.00 68 1014.8
20260506005009 20 20 3.2 12.9 0.00 0.00 0.00 70 1014.8
20260506004009 20 43 6.4 12.9 0.00 0.00 0.00 67 1014.8
20260506003009 21 351 4.8 11.3 0.00 0.00 0.00 66 1014.9
20260506002008 21 14 4.8 9.7 0.00 0.00 0.00 67 1014.9
20260506001008 20 52 0.0 11.3 0.00 0.00 0.00 70 1014.8
20260506000011 20 29 0.0 11.3 0.00 0.00 0.00 66 1014.9
20260505235010 20 14 6.4 8.0 0.00 0.00 0.00 69 1015.0
20260505234009 20 28 6.4 9.7 0.00 0.00 0.00 70 1015.0
20260505233011 20 278 1.6 9.7 0.00 0.00 0.00 67 1015.2
20260505232009 20 7 4.8 9.7 0.00 0.00 0.00 68 1015.3
20260505231009 20 103 1.6 9.7 0.00 0.00 0.00 71 1015.4
20260505230009 20 230 0.0 4.8 0.00 0.00 0.00 69 1015.4
20260505225008 19 342 3.2 9.7 0.00 0.00 0.00 67 1015.6
20260505224008 20 342 4.8 14.5 0.00 0.00 0.00 68 1015.6
20260505222948 18 268 1.6 8.0 0.00 0.00 0.00 71 1015.8
20260505222010 18 16 0.0 9.7 0.00 0.00 0.00 71 1015.9
20260505221009 17 221 0.0 4.8 0.00 0.00 0.00 74 1016.0
20260505220009 17 317 1.6 11.3 0.00 0.00 0.00 72 1016.1
20260505215008 17 50 0.0 6.4 0.00 0.00 0.00 71 1016.1
20260505214009 17 337 4.8 6.4 0.00 0.00 0.00 71 1016.1
20260505213011 17 14 3.2 8.0 0.00 0.00 0.00 72 1016.3
20260505212009 17 338 0.0 11.3 0.00 0.00 0.00 73 1016.2
20260505211009 17 7 6.4 9.7 0.00 0.00 0.00 73 1016.3
20260505210012 17 319 1.6 4.8 0.00 0.00 0.00 75 1016.4
20260505205009 16 268 4.8 4.8 0.00 0.00 0.00 73 1016.5
20260505204009 16 278 4.8 8.0 0.00 0.00 0.00 73 1016.4
20260505203009 16 4 3.2 8.0 0.00 0.00 0.00 76 1016.4
20260505202008 16 11 0.0 9.7 0.00 0.00 0.00 75 1016.4
20260505201008 16 351 0.0 3.2 0.00 0.00 0.00 75 1016.6
20260505200013 16 309 1.6 6.4 0.00 0.00 0.00 76 1016.6
20260505195010 16 286 4.8 6.4 0.00 0.00 0.00 76 1016.6
20260505194009 15 338 4.8 6.4 0.00 0.00 0.00 77 1016.7
20260505193011 15 19 0.0 6.4 0.00 0.00 0.00 76 1016.7
20260505192009 15 346 0.0 4.8 0.00 0.00 0.00 77 1016.7
20260505191008 15 326 3.2 6.4 0.00 0.00 0.00 77 1016.7
20260505190008 15 7 1.6 6.4 0.00 0.00 0.00 77 1016.6
20260505185010 15 358 3.2 6.4 0.00 0.00 0.00 77 1016.6
20260505184010 15 88 0.0 4.8 0.00 0.00 0.00 78 1016.6
20260505183011 15 3 3.2 4.8 0.00 0.00 0.00 78 1016.6
20260505182009 15 176 0.0 3.2 0.00 0.00 0.00 78 1016.5
20260505181010 14 110 0.0 1.6 0.00 0.00 0.00 78 1016.4
20260505180012 14 110 0.0 0.0 0.00 0.00 0.00 79 1016.4
20260505175010 14 110 0.0 3.2 0.00 0.00 0.00 80 1016.4
20260505174009 14 111 1.6 1.6 0.00 0.00 0.00 79 1016.4
20260505173010 14 111 0.0 4.8 0.00 0.00 0.00 81 1016.4
20260505172009 14 122 0.0 3.2 0.00 0.00 0.00 80 1016.4
20260505171009 14 126 0.0 3.2 0.00 0.00 0.00 81 1016.3
20260505170009 13 290 0.0 0.0 0.00 0.00 0.00 80 1016.3
20260505165008 13 290 0.0 1.6 0.00 0.00 0.00 81 1016.3
20260505164008 13 288 0.0 3.2 0.00 0.00 0.00 81 1016.3
20260505163011 13 288 0.0 0.0 0.00 0.00 0.00 80 1016.3
20260505162010 13 290 0.0 3.2 0.00 0.00 0.00 81 1016.3
20260505161008 13 288 1.6 4.8 0.00 0.00 0.00 82 1016.3
20260505153014 13 259 0.0 4.8 0.00 0.00 0.00 83 1016.3
20260505152009 13 222 0.0 4.8 0.00 0.00 0.00 83 1016.2
20260505151010 13 211 1.6 3.2 0.00 0.00 0.00 83 1016.2
20260505125009 12 235 1.6 6.4 0.00 0.00 0.00 86 1015.5
20260505124009 12 222 3.2 4.8 0.00 0.00 0.00 86 1015.3
20260505123010 12 253 0.0 4.8 0.00 0.00 0.00 86 1015.3
20260505122008 12 255 1.6 6.4 0.00 0.00 0.00 87 1015.1
20260505121009 12 214 3.2 4.8 0.00 0.00 0.00 87 1015.0
20260505120012 12 286 0.0 4.8 0.00 0.00 0.00 87 1015.2
20260505115010 12 227 4.8 6.4 0.00 0.00 0.00 87 1015.1
20260505114009 12 220 0.0 4.8 0.00 0.00 0.00 87 1015.1
20260505113010 12 268 1.6 4.8 0.00 0.00 0.00 87 1015.2
20260505112009 12 220 3.2 4.8 0.00 0.00 0.00 88 1015.2
20260505111009 12 221 0.0 4.8 0.00 0.00 0.00 88 1015.2
20260505102010 12 213 0.0 6.4 0.00 0.00 0.00 87 1014.9
20260505101010 12 273 4.8 8.0 0.00 0.00 0.00 87 1014.9
20260505100012 12 222 1.6 4.8 0.00 0.00 0.00 87 1014.9
20260505095009 12 215 3.2 8.0 0.00 0.00 0.00 87 1014.9
20260505094009 12 181 4.8 6.4 0.00 0.00 0.00 87 1014.9
20260505093009 12 251 3.2 9.7 0.00 0.00 0.00 87 1014.8
20260505092009 12 225 4.8 8.0 0.00 0.00 0.00 87 1014.8
20260505091008 12 210 3.2 8.0 0.00 0.00 0.00 86 1014.8
20260505090009 12 208 0.0 9.7 0.00 0.00 0.00 86 1014.7
20260505085008 12 209 0.0 4.8 0.00 0.00 0.00 86 1014.8
20260505084010 12 223 0.0 11.3 0.00 0.00 0.00 86 1014.8
20260505083011 12 210 0.0 8.0 0.00 0.00 0.00 86 1014.9
20260505082009 12 226 3.2 9.7 0.00 0.00 0.00 86 1014.9
20260505081009 12 229 0.0 4.8 0.00 0.00 0.00 86 1014.9
20260505080009 12 213 3.2 8.0 0.00 0.00 0.00 86 1014.9
20260505075009 12 240 3.2 14.5 0.00 0.00 0.00 86 1014.9
20260505074008 12 248 4.8 11.3 0.00 0.00 0.00 85 1014.9
20260505073010 12 217 1.6 9.7 0.00 0.00 0.00 85 1015.0
20260505072008 12 238 1.6 9.7 0.00 0.00 0.00 85 1014.9
20260505071009 12 252 0.0 9.7 0.00 0.00 0.00 85 1014.8
20260505070009 12 203 0.0 9.7 0.00 0.00 0.00 85 1014.8
20260505065008 12 236 4.8 12.9 0.00 0.00 0.00 85 1014.8
20260505064008 12 231 4.8 8.0 0.00 0.00 0.00 85 1014.8
20260505063011 13 238 4.8 9.7 0.00 0.00 0.00 85 1014.7
20260505062009 13 233 8.0 12.9 0.00 0.00 0.00 85 1014.7
20260505061009 13 268 1.6 12.9 0.00 0.00 0.00 84 1014.7
20260505060009 13 231 0.0 9.7 0.00 0.00 0.00 84 1014.7
20260505055008 13 232 4.8 11.3 0.00 0.00 0.00 84 1014.7
20260505054008 13 236 1.6 12.9 0.00 0.00 0.00 84 1014.6
20260505053011 13 191 3.2 14.5 0.00 0.00 0.00 84 1014.5
20260505052010 13 205 3.2 12.9 0.00 0.00 0.00 83 1014.4
20260505051009 13 178 3.2 16.1 0.00 0.00 0.00 84 1014.5
20260505041009 12 225 6.4 9.7 0.00 0.00 0.00 85 1013.8
20260505040011 13 210 1.6 8.0 0.00 0.00 0.00 84 1013.6
20260505035009 13 213 0.0 9.7 0.00 0.00 0.00 84 1013.6
20260505034009 13 172 3.2 11.3 0.00 0.00 0.00 83 1013.5
20260505033009 13 215 4.8 12.9 0.00 0.00 0.00 82 1013.3
20260505032008 13 230 11.3 17.7 0.00 0.00 0.00 81 1013.2
20260505031009 14 208 4.8 16.1 0.00 0.00 0.00 81 1013.1